Location: Karlsruhe
(49.0131°N, 8.3874°E)
Time: 17:19:10
(UTC+02:00)

Tiangong 2 - Visible Passes

Search period start: 24 May 2018 00:00
Search period end: 03 June 2018 00:00
Orbit: 382 x 385 km, 42.8° (Epoch: 24 May)

Date Brightness Start Highest point End Pass type
(mag) Time Alt. Az. Time Alt. Az. Time Alt. Az.
24 May 2.3 23:10:55 10° WSW 23:13:17 25° S 23:13:17 25° S visible
25 May 2.3 22:11:20 10° SW 22:13:58 24° S 22:16:23 11° ESE visible
25 May 3.2 23:47:37 10° WSW 23:48:34 16° SW 23:48:34 16° SW visible
26 May 2.2 22:47:52 10° WSW 22:50:33 25° S 22:51:30 22° SSE visible
27 May 2.9 23:24:45 10° WSW 23:26:32 18° SSW 23:26:32 18° SSW visible
28 May 2.5 22:24:53 10° WSW 22:27:28 23° S 22:29:18 14° SE visible
29 May 3.1 23:02:03 10° WSW 23:03:56 15° SSW 23:04:14 15° SSW visible
30 May 2.8 22:01:58 10° WSW 22:04:20 19° SSW 22:06:40 10° SSE visible
31 May 3.5 22:40:01 10° SW 22:40:43 11° SSW 22:41:24 10° SSW visible
